• en Belgique
  • Liste des pays
  • À 7 jours
  • Température de l'eau
  • Carte satellitaire
  • Carte météo
  • Widgets météo
  • user-avatar
    Se connecter

    Météo par heure à Townsville

    Ce jour, 21 Janvier, Dimanche

    Heure Température Précipitation Vent Pression Humidité
    00:00 +26°C° 0 mm 4 m/s 750 mmHg 84%
    01:00 +26°C° 0 mm 4 m/s 750 mmHg 85%
    02:00 +26°C° 0 mm 4 m/s 750 mmHg 85%
    03:00 +26°C° 0 mm 4 m/s 750 mmHg 85%
    04:00 +25°C° 0 mm 4 m/s 750 mmHg 87%
    05:00 +26°C° 0 mm 4 m/s 750 mmHg 86%
    06:00 +26°C° 0 mm 4 m/s 750 mmHg 85%
    07:00 +26°C° 0 mm 4 m/s 750 mmHg 84%
    08:00 +27°C° 0 mm 4 m/s 750 mmHg 78%
    09:00 +29°C° 0 mm 4 m/s 750 mmHg 71%
    10:00 +32°C° 0 mm 4 m/s 751 mmHg 55%
    11:00 +33°C° 0 mm 4 m/s 750 mmHg 53%
    12:00 +33°C° 0 mm 4 m/s 750 mmHg 51%
    13:00 +34°C° 0 mm 4 m/s 749 mmHg 49%
    14:00 +33°C° 0 mm 4 m/s 749 mmHg 52%
    15:00 +33°C° 0 mm 4 m/s 749 mmHg 55%
    16:00 +32°C° 0 mm 5 m/s 748 mmHg 58%
    17:00 +30°C° 0 mm 5 m/s 749 mmHg 64%
    18:00 +29°C° 0 mm 5 m/s 749 mmHg 70%
    19:00 +28°C° 0 mm 5 m/s 749 mmHg 75%
    20:00 +27°C° 0 mm 5 m/s 749 mmHg 78%
    21:00 +27°C° 0 mm 5 m/s 749 mmHg 81%
    22:00 +26°C° 0 mm 4 m/s 750 mmHg 84%
    23:00 +26°C° 0 mm 4 m/s 750 mmHg 84%

    Demain, 22 Janvier, Lundi

    Heure Température Précipitation Vent Pression Humidité
    00:00 +26°C° 0 mm 4 m/s 750 mmHg 85%
    01:00 +26°C° 0 mm 4 m/s 750 mmHg 85%
    02:00 +26°C° 0 mm 4 m/s 750 mmHg 86%
    03:00 +26°C° 0 mm 3 m/s 749 mmHg 87%
    04:00 +26°C° 0 mm 3 m/s 749 mmHg 87%
    05:00 +26°C° 0 mm 3 m/s 749 mmHg 87%
    06:00 +26°C° 0 mm 3 m/s 749 mmHg 87%
    07:00 +26°C° 0 mm 3 m/s 750 mmHg 88%
    08:00 +27°C° 0 mm 3 m/s 750 mmHg 83%
    09:00 +28°C° 0 mm 3 m/s 750 mmHg 79%
    10:00 +29°C° 0 mm 4 m/s 749 mmHg 75%
    11:00 +29°C° 0 mm 4 m/s 749 mmHg 73%
    12:00 +29°C° 0 mm 4 m/s 749 mmHg 72%
    13:00 +30°C° 0 mm 4 m/s 749 mmHg 70%
    14:00 +29°C° 0,2 mm 4 m/s 748 mmHg 73%
    15:00 +29°C° 0,2 mm 4 m/s 748 mmHg 77%
    16:00 +28°C° 0,2 mm 4 m/s 748 mmHg 80%
    17:00 +27°C° 0,5 mm 4 m/s 748 mmHg 84%
    18:00 +27°C° 0,5 mm 4 m/s 748 mmHg 87%
    19:00 +26°C° 0,5 mm 4 m/s 748 mmHg 91%
    20:00 +25°C° 0 mm 4 m/s 749 mmHg 90%
    21:00 +25°C° 0 mm 3 m/s 749 mmHg 89%
    22:00 +25°C° 0 mm 3 m/s 750 mmHg 87%
    23:00 +25°C° 0,1 mm 3 m/s 750 mmHg 87%

    Après-demain, 23 Janvier, Mardi

    Heure Température Précipitation Vent Pression Humidité
    00:00 +24°C° 0,1 mm 3 m/s 749 mmHg 86%
    01:00 +24°C° 0,1 mm 3 m/s 749 mmHg 86%
    02:00 +24°C° 0,2 mm 3 m/s 749 mmHg 85%
    03:00 +24°C° 0,2 mm 3 m/s 748 mmHg 84%
    04:00 +24°C° 0,2 mm 3 m/s 748 mmHg 83%
    05:00 +24°C° 0,2 mm 3 m/s 748 mmHg 83%
    06:00 +24°C° 0,2 mm 3 m/s 749 mmHg 82%
    07:00 +25°C° 0,2 mm 3 m/s 749 mmHg 82%
    08:00 +25°C° 0,9 mm 3 m/s 749 mmHg 82%
    09:00 +25°C° 0,9 mm 3 m/s 750 mmHg 82%
    10:00 +26°C° 0,9 mm 3 m/s 750 mmHg 83%
    11:00 +27°C° 0,7 mm 3 m/s 749 mmHg 82%
    12:00 +27°C° 0,7 mm 4 m/s 749 mmHg 80%
    13:00 +28°C° 0,7 mm 4 m/s 748 mmHg 79%
    14:00 +28°C° 0,6 mm 4 m/s 748 mmHg 81%
    15:00 +27°C° 0,6 mm 4 m/s 748 mmHg 84%
    16:00 +27°C° 0,6 mm 4 m/s 747 mmHg 86%
    17:00 +26°C° 0,5 mm 4 m/s 747 mmHg 88%
    18:00 +26°C° 0,5 mm 4 m/s 748 mmHg 91%
    19:00 +25°C° 0,5 mm 4 m/s 748 mmHg 93%
    20:00 +25°C° 0,6 mm 4 m/s 749 mmHg 94%
    21:00 +25°C° 0,6 mm 4 m/s 749 mmHg 94%
    22:00 +25°C° 0,6 mm 4 m/s 749 mmHg 95%
    23:00 +25°C° 0,3 mm 4 m/s 749 mmHg 95%

    24 Janvier, Mercredi

    Heure Température Précipitation Vent Pression Humidité
    00:00 +25°C° 0,3 mm 3 m/s 748 mmHg 95%
    01:00 +25°C° 0,3 mm 3 m/s 748 mmHg 95%
    02:00 +25°C° 0,9 mm 3 m/s 747 mmHg 95%
    03:00 +25°C° 0,9 mm 3 m/s 747 mmHg 95%
    04:00 +25°C° 0,9 mm 2 m/s 747 mmHg 95%
    05:00 +26°C° 1,1 mm 2 m/s 747 mmHg 94%
    06:00 +26°C° 1,1 mm 2 m/s 748 mmHg 94%
    07:00 +26°C° 1,1 mm 2 m/s 748 mmHg 94%
    08:00 +27°C° 1,4 mm 2 m/s 748 mmHg 93%
    09:00 +27°C° 1,4 mm 3 m/s 748 mmHg 91%
    10:00 +28°C° 1,4 mm 3 m/s 748 mmHg 90%
    11:00 +27°C° 1,3 mm 3 m/s 748 mmHg 91%
    12:00 +27°C° 1,3 mm 3 m/s 747 mmHg 91%
    13:00 +27°C° 1,3 mm 3 m/s 747 mmHg 92%
    14:00 +27°C° 1,3 mm 3 m/s 747 mmHg 93%
    15:00 +27°C° 1,3 mm 3 m/s 746 mmHg 93%
    16:00 +27°C° 1,3 mm 3 m/s 746 mmHg 94%
    17:00 +27°C° 1,2 mm 3 m/s 746 mmHg 95%
    18:00 +26°C° 1,2 mm 3 m/s 746 mmHg 96%
    19:00 +26°C° 1,2 mm 3 m/s 747 mmHg 97%
    20:00 +26°C° 1,6 mm 2 m/s 747 mmHg 97%
    21:00 +26°C° 1,6 mm 2 m/s 748 mmHg 97%
    22:00 +26°C° 1,6 mm 2 m/s 748 mmHg 97%
    23:00 +26°C° 1,5 mm 2 m/s 748 mmHg 98%

    25 Janvier, Jeudi

    Heure Température Précipitation Vent Pression Humidité
    00:00 +26°C° 1,5 mm 2 m/s 747 mmHg 98%
    01:00 +26°C° 1,5 mm 2 m/s 747 mmHg 98%
    02:00 +25°C° 0,7 mm 2 m/s 746 mmHg 97%
    03:00 +25°C° 0,7 mm 2 m/s 746 mmHg 96%
    04:00 +25°C° 0,7 mm 2 m/s 746 mmHg 94%
    05:00 +25°C° 0,7 mm 2 m/s 746 mmHg 93%
    06:00 +25°C° 0,7 mm 2 m/s 747 mmHg 91%
    07:00 +25°C° 0,7 mm 2 m/s 747 mmHg 90%
    08:00 +25°C° 0,5 mm 2 m/s 747 mmHg 89%
    09:00 +26°C° 0,5 mm 2 m/s 747 mmHg 87%
    10:00 +26°C° 0,5 mm 2 m/s 748 mmHg 86%
    11:00 +27°C° 0,2 mm 2 m/s 747 mmHg 86%
    12:00 +27°C° 0,2 mm 2 m/s 747 mmHg 85%
    13:00 +27°C° 0,2 mm 2 m/s 746 mmHg 85%
    14:00 +28°C° 0,2 mm 2 m/s 746 mmHg 84%
    15:00 +28°C° 0,2 mm 2 m/s 745 mmHg 83%
    16:00 +29°C° 0,2 mm 2 m/s 745 mmHg 82%
    17:00 +28°C° 0,2 mm 2 m/s 746 mmHg 85%
    18:00 +27°C° 0,2 mm 2 m/s 746 mmHg 88%
    19:00 +26°C° 0,2 mm 2 m/s 746 mmHg 90%
    20:00 +26°C° 0,4 mm 2 m/s 747 mmHg 91%
    21:00 +26°C° 0,4 mm 1 m/s 747 mmHg 91%
    22:00 +26°C° 0,4 mm 1 m/s 748 mmHg 92%
    23:00 +26°C° 0,7 mm 1 m/s 747 mmHg 93%

    26 Janvier, Vendredi

    Heure Température Précipitation Vent Pression Humidité
    00:00 +25°C° 0,7 mm 1 m/s 747 mmHg 94%
    01:00 +25°C° 0,7 mm 1 m/s 747 mmHg 95%
    02:00 +25°C° 0,8 mm 2 m/s 746 mmHg 96%
    03:00 +25°C° 0,8 mm 2 m/s 746 mmHg 96%
    04:00 +25°C° 0,8 mm 2 m/s 746 mmHg 96%
    05:00 +26°C° 0,5 mm 2 m/s 746 mmHg 96%
    06:00 +26°C° 0,5 mm 2 m/s 747 mmHg 96%
    07:00 +26°C° 0,5 mm 2 m/s 747 mmHg 96%
    08:00 +26°C° 0,1 mm 2 m/s 747 mmHg 93%
    09:00 +27°C° 0,1 mm 1 m/s 747 mmHg 91%
    10:00 +28°C° 0,1 mm 1 m/s 747 mmHg 88%
    11:00 +28°C° 0 mm 1 m/s 747 mmHg 85%
    12:00 +29°C° 0 mm 1 m/s 746 mmHg 82%
    13:00 +30°C° 0 mm 1 m/s 746 mmHg 79%
    14:00 +29°C° 0,2 mm 1 m/s 745 mmHg 81%
    15:00 +29°C° 0,2 mm 1 m/s 745 mmHg 84%
    16:00 +29°C° 0,2 mm 1 m/s 745 mmHg 86%
    17:00 +28°C° 0,4 mm 1 m/s 745 mmHg 88%
    18:00 +28°C° 0,4 mm 1 m/s 746 mmHg 89%
    19:00 +27°C° 0,4 mm 1 m/s 746 mmHg 90%
    20:00 +27°C° 0,7 mm 1 m/s 746 mmHg 91%
    21:00 +27°C° 0,7 mm 2 m/s 747 mmHg 91%
    22:00 +26°C° 0,7 mm 2 m/s 747 mmHg 92%
    23:00 +26°C° 0,7 mm 2 m/s 747 mmHg 93%
    Voir plus